Temperature
2 2 2 2 2 2 2 3 4 5 5 5 4 3 3 2 1 2 2 1 2 2 2 2 2 3 3 3 3 3 4 4 4 4 4 4 4 5 5 5 5 5 5 5
1 2 1 1 2 2 2 2 3 3 3 3 3 2 2 1 1 1 1 1 1 1 1 1 2 2 2 3 3 3 3 3 3 3 4 4 4 4 4 4 4 4 5 5
2 1 1 2 1 1 1 1 2 2 3 2 2 2 1 0 -0 -0 -0 0 0 1 1 1 1 2 2 2 2 2 2 3 3 3 3 3 3 4 4 4 4 4 4 4
1 1 1 3 1 1 1 1 1 1 1 1 1 0 -0 -0 -1 -1 -1 -0 -0 0 0 1 1 1 1 2 2 2 2 2 2 2 2 3 3 3 3 3 3 4 4 4
0 1 2 2 0 -0 -1 0 0 0 0 0 -0 -0 0 -1 -1 -1 -1 -1 -0 -0 0 1 1 1 1 1 1 2 2 2 2 2 2 2 2 3 3 3 3 3 3 3
-0 1 2 2 -0 -1 -1 1 -0 -1 -1 -1 -1 1 1 -1 -2 -2 -1 -1 -1 -0 -0 0 0 0 1 1 1 1 1 1 2 2 2 2 2 2 2 2 2 3 3 3
-1 0 1 0 -2 -1 0 1 -1 -2 -2 -2 -1 -1 -2 -3 -2 -2 -2 -1 -1 -1 -1 -0 -0 -0 0 0 0 1 1 1 1 1 2 2 2 2 2 2 2 2 2 2
-1 -1 0 -1 -2 -1 -1 -2 -2 -3 -3 -3 -3 -3 -3 -3 -3 -2 -2 -2 -2 -1 -1 -1 -1 -1 -0 -0 -0 0 0 1 1 1 1 1 1 1 1 1 1 1 1 2
-2 -0 -1 -3 -3 -3 -3 -3 -3 -3 -3 -3 -4 -4 -3 -3 -3 -3 -2 -2 -2 -2 -1 -1 -1 -1 -1 -1 -1 -0 -0 0 0 0 1 1 1 1 1 1 1 1 1 1
-3 -2 -2 -3 -3 -3 -3 -4 -4 -4 -4 -4 -4 -4 -4 -4 -3 -3 -3 -3 -2 -2 -2 -2 -2 -2 -2 -1 -1 -1 -1 -0 -0 -0 -0 0 0 0 0 0 1 0 1 1
-3 -2 -3 -3 -3 -3 -4 -4 -4 -4 -4 -4 -4 -4 -4 -4 -4 -3 -3 -3 -3 -3 -3 -2 -2 -2 -2 -2 -2 -1 -1 -1 -1 -1 -1 -0 -0 -0 -0 0 0 0 0 0
-1 -2 -3 -3 -3 -4 -4 -4 -4 -4 -4 -4 -4 -4 -4 -4 -4 -4 -3 -3 -3 -3 -3 -3 -3 -2 -2 -2 -2 -2 -2 -2 -1 -1 -1 -1 -1 -1 -1 -1 -0 -0 -0 -1
-3 -4 -4 -4 -4 -4 -4 -4 -4 -5 -5 -5 -4 -4 -4 -4 -4 -4 -4 -4 -4 -3 -3 -3 -3 -3 -3 -3 -3 -2 -2 -2 -2 -2 -2 -2 -1 -1 -1 -1 -1 -1 -1 -1
-4 -4 -5 -4 -4 -4 -5 -5 -5 -5 -5 -5 -5 -5 -5 -5 -4 -4 -4 -4 -4 -4 -4 -4 -4 -4 -3 -3 -3 -3 -3 -2 -2 -2 -2 -2 -2 -2 -2 -2 -1 -1 -1 -1
-5 -5 -5 -5 -5 -5 -5 -5 -5 -5 -5 -5 -5 -5 -5 -5 -5 -5 -5 -4 -4 -4 -4 -4 -4 -4 -4 -4 -3 -3 -3 -3 -3 -3 -3 -3 -2 -2 -2 -2 -2 -2 -2 -2
-5 -5 -5 -5 -5 -5 -5 -5 -5 -5 -5 -5 -5 -5 -5 -5 -5 -5 -5 -5 -5 -5 -5 -5 -4 -4 -4 -4 -4 -4 -3 -3 -3 -3 -3 -3 -3 -3 -3 -3 -3 -3 -2 -2
-6 -6 -6 -6 -6 -5 -5 -5 -5 -5 -5 -5 -5 -5 -5 -5 -5 -5 -5 -5 -5 -5 -5 -5 -5 -5 -5 -4 -4 -4 -4 -4 -4 -4 -4 -4 -4 -4 -3 -3 -3 -3 -3 -3
-5 -5 -5 -5 -6 -6 -6 -6 -6 -6 -6 -6 -6 -6 -6 -6 -6 -6 -6 -6 -5 -5 -5 -5 -5 -5 -5 -5 -5 -5 -4 -4 -4 -4 -4 -4 -4 -4 -4 -4 -4 -3 -3 -3
-5 -6 -5 -5 -6 -6 -6 -6 -6 -6 -6 -6 -6 -6 -6 -6 -6 -6 -6 -6 -6 -5 -5 -5 -5 -5 -5 -5 -5 -5 -5 -5 -5 -5 -5 -5 -5 -5 -4 -4 -4 -4 -4 -4
-6 -6 -6 -6 -6 -6 -6 -6 -6 -6 -6 -6 -6 -6 -6 -6 -6 -6 -6 -6 -6 -6 -6 -6 -6 -6 -6 -6 -6 -6 -6 -6 -6 -6 -5 -5 -5 -5 -5 -5 -5 -4 -4 -4
-6 -6 -6 -6 -6 -6 -6 -6 -6 -6 -6 -6 -6 -6 -6 -6 -6 -7 -7 -6 -6 -6 -6 -6 -6 -6 -6 -6 -6 -6 -6 -6 -6 -6 -6 -6 -5 -5 -5 -5 -5 -5 -5 -5
-6 -6 -6 -6 -6 -6 -6 -6 -7 -7 -7 -7 -7 -7 -7 -7 -7 -7 -7 -7 -7 -7 -7 -7 -7 -7 -7 -7 -7 -7 -7 -7 -7 -6 -6 -6 -6 -6 -6 -6 -6 -5 -5 -5
-6 -6 -7 -7 -7 -7 -7 -7 -7 -7 -7 -7 -7 -7 -7 -7 -7 -7 -7 -7 -7 -7 -7 -7 -7 -7 -7 -7 -7 -7 -7 -7 -7 -7 -7 -7 -7 -7 -6 -6 -6 -6 -6 -5
-6 -7 -7 -7 -7 -7 -7 -7 -7 -7 -7 -7 -7 -7 -7 -7 -8 -8 -8 -8 -8 -8 -8 -8 -8 -8 -8 -8 -8 -8 -7 -7 -7 -7 -7 -7 -7 -7 -7 -7 -7 -6 -6 -6
-7 -7 -7 -7 -7 -7 -7 -7 -7 -7 -7 -7 -8 -8 -8 -8 -8 -8 -8 -8 -8 -8 -8 -8 -8 -8 -8 -8 -8 -8 -8 -8 -8 -8 -8 -8 -7 -7 -7 -7 -7 -7 -6 -6
-7 -7 -7 -8 -8 -8 -8 -8 -8 -8 -8 -8 -8 -8 -8 -8 -8 -8 -8 -8 -8 -8 -8 -8 -8 -8 -8 -8 -8 -8 -8 -8 -8 -8 -8 -8 -8 -8 -7 -7 -7 -7 -7 -6
-8 -8 -8 -8 -8 -8 -8 -8 -8 -8 -8 -8 -8 -8 -8 -8 -8 -8 -8 -8 -8 -8 -8 -8 -8 -8 -8 -8 -8 -8 -8 -8 -8 -8 -8 -8 -8 -8 -8 -7 -7 -7 -7 -7
Wind_Speed
9 9 7 7 8 6 7 8 8 9 10 11 10 10 9 8 7 6 5 4 4 3 3 2 2 2 2 2 1 1 1 1 1 1 1 1 1 2 3 3 4 4 4 4
5 5 5 7 8 7 7 9 10 11 11 10 9 7 7 7 7 7 6 5 4 4 3 3 3 2 2 2 1 1 1 1 0 0 1 1 1 2 2 3 3 4 4 4
4 4 4 5 6 6 5 5 6 8 9 9 8 7 7 7 7 7 7 6 5 4 4 3 3 3 2 2 2 1 1 0 0 0 1 1 1 2 3 3 3 3 3 3
3 3 4 1 1 2 5 5 5 7 9 8 8 9 7 6 6 6 7 6 5 4 4 4 3 3 3 2 1 1 0 0 0 0 1 1 2 2 2 2 3 3 3 3
2 3 6 3 2 2 4 5 4 7 8 8 8 6 4 5 6 6 6 6 5 4 4 3 3 3 2 2 1 1 1 1 1 1 1 1 2 2 2 2 3 3 3 3
3 4 4 2 2 2 3 4 1 4 7 7 6 4 4 7 7 7 6 4 4 4 3 3 3 3 2 2 1 1 2 2 2 1 1 2 2 2 1 2 2 2 2 3
5 5 5 3 3 1 3 3 4 5 6 6 5 6 7 7 7 6 5 4 4 3 3 3 3 2 2 2 2 3 2 2 2 1 1 1 1 1 1 1 2 2 2 2
4 5 5 0 2 3 4 5 5 6 6 6 6 7 7 6 6 5 5 4 4 3 3 3 3 2 2 3 3 3 2 2 2 2 1 0 0 0 1 1 2 2 2 1
6 5 3 3 3 4 4 6 6 7 7 6 6 6 6 6 5 5 5 4 3 3 3 3 3 3 3 3 3 3 3 2 2 2 1 0 0 1 1 1 1 2 2 1
6 8 7 7 7 7 6 7 7 6 6 5 5 6 6 5 5 5 4 3 3 3 3 3 4 3 3 3 3 2 2 2 2 1 1 1 0 0 1 1 1 1 2 2
7 8 7 7 7 7 7 7 6 6 5 5 5 6 5 5 5 5 4 3 3 2 3 4 4 3 3 3 2 2 2 2 2 2 1 1 1 1 1 1 2 2 2 2
7 5 5 7 6 6 7 7 6 6 6 5 5 5 5 4 4 4 4 3 3 3 3 3 3 3 3 3 2 1 2 2 2 1 1 1 1 1 2 1 1 2 2 2
6 5 6 7 7 6 6 7 6 5 5 5 4 4 4 4 4 3 3 3 3 3 3 3 3 3 3 3 2 2 1 2 2 1 1 1 0 0 1 2 2 1 1 1
6 5 6 5 6 6 5 5 4 4 4 4 3 3 3 3 3 3 3 3 3 3 3 3 2 3 3 2 2 2 2 2 1 1 1 1 1 1 1 1 1 1 2 2
6 6 6 6 5 4 4 3 3 3 3 3 2 2 2 2 3 3 3 3 2 2 3 2 2 3 3 2 2 2 2 1 1 1 1 1 1 1 1 1 1 1 1 1
5 5 5 5 5 4 4 3 4 4 4 3 3 3 3 2 3 3 3 2 2 3 3 3 3 3 3 2 2 2 1 2 2 1 1 1 1 1 1 1 1 1 1 1
3 4 5 5 6 5 5 5 5 5 4 4 4 3 2 2 2 2 3 2 2 3 3 3 3 3 3 2 2 1 1 1 2 1 1 1 1 1 1 1 1 1 1 1
7 7 6 6 6 6 5 5 4 4 4 4 3 3 2 2 2 3 3 3 2 2 3 3 3 3 3 2 2 1 1 1 1 1 1 1 1 1 1 1 1 1 1 1
5 5 4 5 5 4 4 4 4 4 3 3 3 3 3 3 3 3 2 2 2 3 3 3 4 3 3 2 2 1 1 1 1 1 1 1 1 1 1 1 1 1 1 1
3 3 3 3 3 3 3 3 3 3 3 2 2 2 2 3 2 2 2 2 2 2 3 3 3 3 2 2 2 1 1 1 1 1 1 1 1 1 1 1 1 1 1 1
3 3 3 3 3 2 3 2 2 3 2 2 2 3 3 3 2 2 2 2 2 3 3 3 2 2 2 2 2 1 1 1 1 1 1 1 1 2 1 1 1 1 1 1
3 3 3 3 2 2 2 2 2 2 2 2 2 2 2 2 2 2 2 3 3 3 3 2 2 2 2 2 1 1 1 1 1 1 2 2 2 2 2 2 1 1 1 1
3 3 3 3 2 2 2 2 2 2 2 2 2 3 3 3 2 2 2 2 2 3 2 2 2 3 2 1 1 1 1 1 2 2 2 2 2 2 2 2 2 1 1 1
2 2 2 2 1 1 2 2 2 2 2 2 2 3 3 2 2 2 2 3 3 3 2 2 3 3 2 2 1 1 2 2 2 2 2 2 2 2 2 2 1 1 1 2
2 1 1 1 2 2 2 2 1 1 1 1 2 2 2 2 2 2 2 2 3 2 2 2 2 3 2 1 1 2 2 2 2 2 2 2 2 2 2 2 2 2 2 2
2 2 2 2 2 2 1 1 1 1 1 2 2 2 2 2 2 1 1 1 2 2 2 2 2 2 2 1 1 1 1 2 2 2 2 2 2 2 2 2 2 2 2 1
1 1 1 1 1 1 1 1 2 2 2 2 2 2 2 1 1 1 1 1 1 1 1 1 1 2 2 1 1 1 1 1 1 2 2 2 2 2 2 2 1 1 1 1
Wind_Direction
276 284 284 281 275 258 238 245 251 269 279 296 315 320 324 331 337 343 348 353 353 347 340 335 336 334 328 331 333 294 241 229 233 219 224 199 177 176 177 181 182 182 187 195
281 278 280 280 278 263 253 253 257 270 279 300 314 318 325 332 336 334 336 336 339 339 338 331 327 320 321 325 318 288 271 283 274 194 205 197 177 168 166 174 179 180 188 193
279 308 292 275 271 245 235 246 257 265 285 312 311 310 314 323 328 326 326 329 329 327 322 314 316 319 314 308 306 277 265 266 162 203 223 220 185 168 172 172 172 179 185 190
285 297 248 279 38 254 237 261 265 277 296 306 307 309 310 319 322 322 325 322 322 325 324 324 326 331 328 318 309 296 289 313 27 243 246 230 199 192 183 175 175 177 187 197
250 266 272 281 280 263 249 269 277 283 296 306 314 303 301 346 333 320 319 314 315 321 324 330 337 334 326 321 332 331 313 305 299 270 246 235 216 218 203 185 181 179 184 194
235 255 260 312 342 312 240 263 310 295 301 312 318 297 318 348 336 330 330 327 325 331 337 343 342 336 335 336 339 324 311 297 294 279 248 236 230 224 226 198 188 179 182 195
238 249 268 315 327 202 225 308 335 302 300 301 287 291 311 320 323 326 331 335 336 338 343 343 342 339 345 352 343 331 326 315 311 300 277 253 242 225 203 180 173 179 184 194
217 229 256 33 142 209 283 324 311 303 301 295 295 301 306 314 321 327 333 337 341 342 343 345 345 343 343 343 337 334 336 336 334 330 326 292 239 230 176 163 169 179 183 186
217 238 302 194 233 279 305 300 302 300 298 292 292 297 305 314 319 321 324 327 333 335 334 342 346 344 336 330 335 341 349 350 344 341 342 334 208 204 181 168 178 194 195 199
256 262 272 264 270 283 287 287 294 295 292 288 286 290 297 304 309 313 316 317 322 326 329 335 341 340 335 332 335 344 346 347 347 345 348 356 318 231 212 208 203 211 219 217
256 276 289 268 268 280 286 291 295 297 291 285 283 285 288 295 303 305 305 307 310 311 317 323 331 336 338 336 343 349 346 345 344 345 342 354 356 329 255 249 249 242 238 227
252 261 260 281 288 278 279 285 289 293 296 293 282 280 286 291 296 297 297 303 305 308 311 315 323 330 333 334 334 339 341 339 337 339 341 343 0 13 19 334 318 298 283 259
259 280 273 280 282 274 275 282 285 284 285 291 292 285 283 290 295 293 294 298 297 300 305 310 317 322 326 328 331 331 322 319 322 327 314 297 302 316 6 21 32 19 352 322
254 267 272 272 279 285 282 284 291 292 290 286 286 289 287 290 297 301 302 302 303 303 306 310 315 316 321 327 332 331 326 323 323 319 306 282 262 266 263 262 330 344 343 350
245 249 261 277 281 285 286 284 290 292 299 302 296 290 290 294 298 303 309 313 317 316 316 321 324 324 331 336 336 328 324 323 332 330 311 296 279 270 266 263 274 306 329 340
265 262 260 263 270 279 281 276 275 280 287 292 294 293 293 293 299 306 312 316 311 316 319 323 322 325 333 337 335 333 334 341 339 327 310 301 291 275 272 275 282 289 300 314
237 255 256 262 267 271 269 267 265 270 275 278 281 285 288 294 304 310 318 320 312 309 313 313 314 324 328 327 325 325 326 341 346 335 317 294 277 273 276 275 277 286 298 304
241 251 250 253 256 263 269 272 269 269 269 273 277 272 265 265 276 291 304 313 318 322 321 318 316 324 325 324 320 309 309 321 333 329 322 315 298 282 276 271 268 284 305 321
249 253 253 253 255 253 257 263 267 269 273 267 261 260 264 265 268 279 293 302 302 305 319 326 327 329 325 324 322 300 297 304 315 317 313 311 309 303 297 289 289 299 311 322
256 255 257 263 262 254 255 263 267 270 272 261 257 263 270 277 276 277 283 284 286 291 303 312 322 327 324 323 319 299 283 278 281 291 298 299 295 292 295 295 292 294 304 311
253 256 257 258 264 267 261 257 253 263 273 258 247 254 265 279 279 267 265 282 303 301 297 305 313 311 315 324 318 295 277 275 279 279 279 280 284 287 289 289 285 287 295 304
249 251 257 258 260 277 285 274 260 260 265 263 262 263 268 277 278 272 266 267 291 305 309 302 302 306 323 325 310 290 277 272 276 277 273 271 273 276 275 275 271 276 288 289
247 250 254 256 255 271 291 284 268 257 254 257 259 261 263 268 269 262 279 282 283 296 304 290 297 308 328 321 296 282 274 271 268 265 265 267 268 268 267 267 265 263 268 277
248 253 261 267 246 240 267 284 284 275 267 272 271 266 263 267 272 266 272 286 290 293 295 293 306 319 331 321 298 283 280 277 274 270 267 267 265 262 262 263 259 260 260 265
239 243 245 234 232 246 262 280 291 291 292 295 295 290 276 266 264 281 285 284 286 296 299 307 326 335 336 324 304 284 276 277 277 276 270 265 260 259 260 259 256 257 256 252
223 233 240 246 249 253 256 256 265 278 286 296 306 303 299 295 281 282 290 297 300 309 313 316 320 324 328 323 316 307 295 291 291 286 279 273 264 260 260 260 262 261 256 250
222 232 241 261 277 261 251 247 252 267 274 277 294 304 306 304 295 303 312 307 310 312 312 315 319 321 320 320 320 318 313 303 295 287 281 276 270 264 261 260 262 262 252 240
Height
1494 1492 1491 1489 1487 1486 1485 1479 1475 1467 1467 1465 1467 1468 1467 1465 1463 1461 1460 1459 1458 1457 1457 1456 1456 1456 1456 1455 1456 1457 1458 1458 1458 1460 1461 1462 1463 1464 1466 1467 1469 1470 1472 1473
1494 1490 1490 1488 1485 1483 1483 1481 1477 1472 1469 1469 1470 1469 1467 1465 1464 1461 1460 1459 1458 1457 1456 1456 1455 1455 1455 1454 1454 1455 1455 1456 1457 1458 1458 1459 1461 1462 1463 1465 1466 1468 1469 1470
1487 1490 1488 1482 1481 1481 1481 1480 1478 1473 1472 1471 1470 1468 1468 1466 1464 1462 1460 1459 1458 1457 1456 1455 1455 1454 1453 1453 1453 1454 1454 1454 1455 1456 1457 1458 1458 1459 1461 1462 1464 1465 1466 1467
1492 1491 1484 1478 1482 1481 1480 1479 1479 1477 1474 1473 1471 1469 1467 1466 1464 1462 1460 1458 1457 1456 1455 1454 1454 1453 1453 1453 1453 1453 1453 1453 1454 1454 1455 1456 1457 1458 1459 1460 1461 1462 1463 1465
1493 1485 1476 1478 1481 1482 1482 1477 1477 1476 1474 1472 1470 1467 1465 1464 1462 1461 1459 1457 1456 1455 1454 1453 1453 1452 1452 1452 1452 1452 1452 1452 1453 1453 1453 1454 1455 1456 1457 1458 1459 1460 1461 1462
1494 1485 1476 1476 1481 1482 1483 1475 1475 1475 1473 1472 1470 1465 1463 1463 1461 1459 1458 1456 1455 1454 1453 1453 1452 1452 1451 1450 1450 1450 1451 1451 1451 1452 1452 1453 1453 1454 1454 1455 1456 1457 1459 1460
1493 1486 1477 1481 1482 1481 1479 1473 1475 1474 1473 1471 1470 1468 1466 1463 1461 1459 1457 1456 1455 1453 1453 1452 1451 1450 1450 1449 1449 1449 1449 1450 1450 1450 1451 1452 1452 1452 1453 1453 1454 1455 1456 1458
1492 1487 1481 1482 1481 1481 1477 1476 1475 1473 1472 1470 1468 1465 1463 1462 1460 1458 1456 1455 1454 1453 1452 1451 1450 1449 1448 1448 1448 1448 1448 1448 1448 1449 1449 1450 1450 1451 1451 1452 1452 1453 1454 1455
1488 1482 1480 1480 1479 1478 1477 1475 1473 1472 1470 1468 1466 1464 1462 1460 1458 1457 1455 1454 1453 1452 1451 1450 1449 1449 1448 1447 1447 1447 1447 1447 1447 1447 1448 1448 1448 1449 1449 1450 1450 1451 1452 1453
1486 1478 1478 1478 1476 1475 1474 1473 1471 1469 1467 1466 1464 1462 1460 1458 1457 1455 1454 1453 1452 1451 1450 1449 1449 1448 1447 1447 1446 1446 1446 1446 1446 1446 1446 1446 1447 1447 1447 1448 1448 1449 1450 1450
1481 1477 1475 1473 1473 1472 1471 1469 1468 1466 1465 1463 1461 1460 1459 1457 1455 1454 1453 1452 1451 1450 1449 1448 1447 1447 1446 1446 1445 1445 1445 1445 1445 1445 1445 1445 1445 1445 1446 1446 1446 1447 1448 1448
1473 1473 1473 1470 1469 1469 1468 1466 1465 1463 1462 1460 1459 1458 1456 1455 1454 1452 1451 1450 1449 1448 1447 1447 1446 1445 1445 1445 1445 1444 1444 1444 1444 1444 1444 1444 1443 1443 1444 1444 1445 1445 1446 1446
1471 1470 1469 1468 1467 1466 1465 1463 1462 1461 1459 1458 1457 1456 1454 1453 1452 1451 1450 1449 1448 1447 1446 1445 1445 1444 1444 1444 1444 1443 1443 1443 1443 1442 1442 1442 1442 1442 1441 1442 1443 1443 1443 1443
1468 1468 1466 1465 1464 1463 1462 1461 1460 1458 1457 1456 1455 1453 1452 1451 1450 1449 1448 1447 1447 1446 1445 1444 1444 1443 1443 1443 1443 1442 1442 1442 1441 1441 1441 1441 1441 1441 1441 1440 1440 1440 1441 1441
1464 1464 1463 1462 1461 1460 1459 1458 1457 1456 1454 1453 1452 1451 1451 1449 1448 1448 1447 1446 1445 1444 1444 1443 1442 1442 1442 1441 1441 1441 1440 1440 1440 1440 1440 1439 1439 1439 1439 1439 1439 1439 1439 1439
1460 1460 1459 1459 1458 1457 1456 1455 1454 1453 1452 1451 1450 1449 1449 1448 1447 1446 1445 1445 1444 1443 1442 1442 1441 1441 1440 1440 1440 1439 1439 1438 1438 1438 1438 1438 1438 1438 1438 1438 1438 1438 1437 1438
1456 1456 1455 1455 1454 1454 1453 1453 1452 1451 1450 1449 1448 1448 1447 1446 1445 1445 1444 1443 1443 1442 1441 1441 1440 1440 1439 1439 1438 1438 1437 1437 1437 1437 1436 1436 1436 1436 1436 1436 1436 1436 1436 1436
1453 1453 1452 1452 1451 1451 1450 1450 1449 1449 1448 1447 1446 1446 1445 1444 1444 1443 1442 1442 1441 1440 1440 1439 1439 1438 1438 1437 1437 1436 1436 1435 1435 1435 1435 1435 1435 1435 1435 1435 1435 1435 1435 1435
1450 1450 1449 1449 1449 1448 1448 1447 1447 1446 1446 1445 1444 1444 1443 1443 1442 1441 1441 1440 1439 1438 1438 1438 1437 1436 1436 1435 1435 1435 1434 1434 1434 1433 1433 1433 1433 1433 1433 1433 1433 1433 1433 1433
1447 1447 1447 1446 1446 1446 1445 1445 1444 1444 1444 1443 1442 1442 1441 1441 1440 1439 1439 1438 1437 1437 1436 1435 1435 1434 1434 1433 1433 1433 1433 1432 1432 1432 1431 1431 1431 1431 1431 1431 1431 1431 1431 1431
1444 1444 1444 1444 1443 1443 1443 1442 1442 1442 1441 1441 1440 1440 1439 1438 1438 1437 1436 1436 1436 1435 1434 1434 1433 1433 1432 1432 1431 1431 1431 1431 1430 1430 1429 1429 1429 1429 1429 1429 1429 1429 1429 1430
1442 1442 1442 1441 1441 1440 1440 1440 1440 1439 1439 1439 1438 1438 1437 1436 1436 1435 1435 1434 1434 1433 1433 1432 1432 1431 1431 1430 1430 1429 1429 1429 1428 1428 1427 1427 1427 1427 1427 1427 1427 1428 1428 1428
1440 1440 1439 1439 1439 1438 1438 1438 1437 1437 1437 1437 1436 1436 1435 1434 1434 1433 1433 1432 1432 1431 1431 1430 1430 1429 1429 1428 1428 1427 1427 1426 1426 1426 1425 1425 1425 1425 1425 1425 1426 1426 1426 1426
1437 1437 1437 1437 1436 1436 1436 1436 1435 1435 1435 1434 1434 1434 1433 1432 1432 1432 1431 1430 1430 1429 1429 1428 1428 1427 1427 1426 1426 1425 1425 1424 1424 1424 1424 1423 1423 1423 1423 1424 1424 1424 1424 1425
1435 1435 1435 1435 1434 1434 1434 1433 1433 1433 1433 1432 1432 1432 1431 1431 1430 1429 1429 1428 1428 1427 1427 1426 1426 1425 1425 1424 1424 1423 1423 1423 1422 1422 1422 1422 1422 1422 1422 1422 1422 1422 1423 1423
1433 1433 1433 1433 1432 1432 1432 1431 1431 1431 1431 1430 1430 1430 1429 1428 1428 1427 1427 1426 1426 1426 1425 1425 1424 1424 1423 1423 1422 1422 1421 1421 1421 1420 1420 1420 1420 1420 1420 1420 1420 1421 1421 1421
1431 1431 1431 1431 1431 1431 1430 1430 1429 1429 1429 1428 1428 1427 1427 1427 1426 1426 1425 1425 1424 1424 1423 1423 1423 1422 1421 1421 1420 1420 1419 1419 1419 1418 1418 1418 1418 1418 1418 1418 1419 1419 1420 1420